Wind_Speed
4 4 5 4 5 4 4 4 6 6 4 8 2 2 1 1 2 3 4 8 5 6 7 8 9 10 13 19 26 29 29 32 33 36 36 41 44 36
5 0 4 4 3 2 3 3 4 7 6 6 2 4 4 6 4 4 6 7 12 10 8 8 9 10 12 15 17 20 23 26 30 34 35 38 40 39
4 2 3 3 5 3 3 3 4 5 7 9 5 4 2 5 8 8 10 15 16 19 13 11 9 10 12 17 18 19 18 19 24 28 34 36 38 37
7 5 5 4 2 3 4 1 5 5 6 6 9 10 6 4 8 7 10 11 6 16 11 10 8 8 9 12 14 17 17 20 19 21 25 30 32 35
8 7 6 5 4 4 4 4 3 3 5 7 9 8 7 8 7 9 10 9 10 14 12 10 8 7 6 9 14 16 17 16 17 16 17 18 22 25
8 7 6 6 5 4 5 3 4 3 5 7 9 7 7 4 6 9 9 9 8 8 6 8 9 11 11 10 9 10 14 15 15 14 14 14 17 18
8 7 8 8 7 5 5 2 2 6 6 6 8 8 6 4 8 8 6 9 9 9 11 8 9 12 13 13 10 10 11 13 14 15 15 16 17 18
10 9 8 8 9 6 6 5 3 4 5 6 7 8 6 5 8 9 8 10 6 4 3 11 14 15 11 13 12 8 8 14 16 17 17 18 18 16
10 8 9 11 11 7 7 6 7 6 6 7 6 7 8 8 9 9 9 8 9 11 10 13 12 16 12 11 5 5 10 13 14 15 14 15 15 14
9 6 8 7 6 7 9 10 9 9 10 7 7 10 11 9 8 9 11 12 14 17 13 10 10 15 9 8 10 12 10 10 10 10 9 9 11 10
10 8 5 9 10 9 10 11 12 9 8 10 10 10 10 12 14 11 12 15 15 12 10 7 8 12 9 10 8 8 7 9 10 10 9 10 9 9
8 9 5 7 10 8 8 8 11 10 10 9 10 11 11 11 9 10 13 13 13 13 2 5 6 6 7 13 11 6 7 9 12 14 14 13 12 11
2 3 1 4 7 13 14 10 8 6 7 12 14 12 9 9 10 12 10 11 12 15 1 5 8 11 11 13 10 9 11 11 11 14 17 17 16 15
8 10 10 9 12 8 12 10 10 10 9 14 14 12 10 9 8 7 8 10 13 14 17 12 10 11 13 14 14 13 13 12 11 13 15 17 20 20
3 1 2 7 12 17 14 13 11 8 11 12 13 14 12 12 11 13 12 18 16 17 17 16 15 16 17 17 15 16 16 16 12 13 15 18 19 17
4 9 14 17 17 17 16 12 14 11 12 12 15 15 15 15 14 15 15 15 15 15 16 16 17 15 15 17 18 18 18 16 17 15 17 15 17 20
13 14 15 16 15 17 16 14 14 11 7 8 12 15 14 15 15 14 15 16 16 15 16 14 20 21 19 18 17 18 19 19 18 18 16 16 18 19
9 10 9 14 14 11 4 5 5 6 6 8 12 12 13 14 14 18 18 16 15 15 17 16 16 18 20 21 22 21 20 19 20 19 18 17 17 18
4 7 7 6 4 4 5 4 5 5 11 9 10 11 12 12 14 15 16 16 17 16 16 17 14 11 3 8 19 26 27 23 17 17 20 18 19 19
2 2 3 4 4 4 4 5 6 5 6 8 8 9 10 10 11 10 12 13 14 17 19 17 8 6 4 4 7 23 14 27 20 10 9 11 17 20
7 5 6 7 7 5 6 7 7 9 7 9 10 10 10 12 13 14 13 11 9 14 15 17 14 18 15 15 12 16 21 6 10 17 17 11 14 17
7 7 5 6 7 7 7 7 9 9 10 10 10 11 13 12 14 15 16 17 17 17 14 15 15 13 11 11 15 17 17 15 18 21 18 11 4 7
8 7 9 9 9 9 9 11 13 14 14 14 15 16 15 15 16 18 18 19 18 18 18 19 18 10 12 12 13 13 14 16 18 18 22 23 18 20
Wind_Direction
267 267 281 289 281 302 292 286 296 298 299 136 310 144 256 55 206 250 207 215 200 205 206 209 217 224 230 232 232 234 237 237 237 235 235 236 238 241
256 217 285 294 273 281 298 292 278 285 291 306 228 48 34 295 279 265 261 239 243 233 223 223 223 230 238 236 232 231 235 236 236 236 236 238 244 242
260 212 238 301 302 291 305 289 281 279 280 285 329 75 351 269 281 293 279 261 244 225 217 224 238 258 258 235 232 232 238 242 242 240 238 238 244 249
205 202 216 208 273 257 283 41 312 319 296 307 296 295 269 272 267 286 279 276 128 202 210 229 255 273 262 228 227 231 240 238 241 242 241 240 240 245
209 210 217 215 227 289 300 297 301 303 277 295 300 274 281 288 273 270 257 278 283 223 224 247 256 269 259 240 238 242 244 241 233 230 232 236 242 247
223 223 229 228 224 233 255 273 256 287 269 271 279 284 269 260 271 272 257 252 255 269 194 221 263 269 269 263 255 243 239 229 226 228 233 238 244 247
223 231 238 224 204 228 258 292 339 279 301 294 288 281 279 340 334 322 303 274 292 261 260 282 243 258 246 239 234 236 234 226 224 233 241 247 251 253
223 231 243 241 237 229 241 245 226 264 279 296 295 348 321 304 283 309 326 303 305 103 288 277 277 277 261 219 211 204 253 254 246 243 252 256 254 251
228 245 252 265 195 217 231 237 243 247 259 276 285 294 316 294 308 306 287 309 278 282 303 278 276 267 246 212 208 277 274 264 256 248 245 245 238 243
217 235 262 273 264 249 243 234 234 227 241 246 253 284 280 274 276 277 286 283 274 259 243 253 277 271 242 231 268 278 267 260 247 236 222 218 219 218
211 208 231 279 265 261 259 271 275 265 278 247 277 292 280 269 261 262 268 260 265 272 184 242 282 273 297 302 218 222 240 245 236 222 218 215 218 224
210 212 203 257 280 270 260 252 259 271 276 280 284 285 278 273 260 259 252 262 280 284 297 215 273 309 291 270 193 210 235 250 242 240 237 226 219 213
328 53 132 140 279 272 271 260 277 289 300 289 281 275 276 259 248 227 234 252 274 276 284 304 275 274 266 275 277 253 233 227 241 245 239 233 228 229
35 40 32 2 319 276 265 247 258 271 283 288 291 290 288 288 286 259 241 255 273 278 277 294 284 283 289 290 285 286 271 245 219 232 233 242 241 237
312 356 301 283 280 280 259 248 257 269 274 290 298 305 311 301 304 296 276 266 267 259 259 263 252 264 271 268 277 283 293 285 273 262 255 230 232 240
209 249 267 275 261 258 267 261 267 268 269 292 298 296 295 296 291 281 281 278 275 289 259 235 238 241 251 259 273 280 278 275 276 257 264 259 241 235
284 287 274 256 256 257 259 263 268 269 287 303 308 307 302 294 293 284 278 280 286 284 290 288 239 236 237 244 258 265 274 279 266 263 262 255 262 272
278 287 288 283 271 265 245 261 291 302 308 305 301 298 304 307 315 304 304 296 296 292 286 293 330 247 242 248 243 253 253 257 265 270 252 257 262 263
256 305 303 302 336 334 318 315 318 302 303 299 288 295 296 298 311 323 316 313 311 315 312 308 327 342 345 277 264 255 244 256 262 248 247 250 241 249
105 19 345 342 331 320 305 299 289 279 282 292 291 295 300 307 303 304 308 312 319 314 308 300 299 2 340 295 306 290 314 276 293 311 307 296 280 267
345 335 340 328 316 315 317 315 307 300 311 307 299 301 311 310 312 305 302 300 285 300 304 303 314 313 302 301 264 274 284 231 326 342 326 325 303 302
353 339 345 329 326 312 309 306 297 302 294 294 300 300 296 299 300 305 303 305 304 296 291 292 300 298 302 279 286 292 275 283 278 286 290 303 303 303
341 334 327 321 310 312 314 312 305 302 303 301 300 299 299 299 299 297 296 294 293 296 301 295 290 289 272 265 265 272 289 312 294 284 281 282 272 279
Height
814 815 814 812 812 811 811 810 809 806 798 804 804 807 809 809 812 812 812 813 813 813 814 814 814 816 817 818 819 822 824 827 830 833 836 837 839 843
813 814 815 813 813 812 811 811 810 809 805 801 804 806 809 811 811 811 810 810 808 809 810 810 811 811 811 812 813 815 817 819 822 825 828 830 832 835
814 814 815 814 813 812 811 810 809 809 807 804 804 806 809 810 809 809 809 807 804 805 806 806 807 807 806 806 808 810 813 814 816 817 820 823 825 828
812 813 814 812 814 814 811 811 811 811 810 808 808 807 806 807 807 808 806 803 801 801 803 804 804 803 802 802 803 805 806 808 809 811 812 815 819 821
810 811 811 811 812 812 813 811 809 809 809 808 807 805 804 804 803 803 803 802 800 799 799 800 800 801 800 800 800 800 801 801 804 806 808 810 812 814
810 810 810 811 810 811 812 811 810 810 807 808 804 802 801 801 802 801 799 799 797 796 799 798 798 798 798 798 797 796 797 798 800 802 804 805 807 809
808 809 810 809 810 810 809 808 808 808 806 804 803 800 799 799 799 798 798 797 796 797 795 795 795 794 793 793 793 794 795 796 797 799 801 801 802 803
804 806 807 808 807 808 808 808 808 809 808 804 802 802 802 802 800 799 797 797 793 792 794 794 792 790 789 790 791 790 793 795 794 795 796 797 797 798
801 803 803 802 804 806 806 806 807 808 808 808 805 804 804 803 801 800 799 799 796 793 794 792 791 788 786 786 787 787 789 791 791 791 791 792 793 794
797 799 802 803 804 806 806 806 804 805 804 805 805 804 804 803 802 801 799 799 795 791 791 789 787 784 783 783 784 785 786 787 789 790 788 789 790 790
795 794 796 803 802 803 805 806 805 803 802 803 802 801 800 800 799 799 797 795 788 784 785 786 786 783 781 781 780 782 783 784 786 787 787 788 789 790
793 794 790 797 802 804 804 801 802 802 801 804 801 797 797 796 797 795 795 793 790 785 783 784 783 782 783 780 779 780 780 782 783 785 785 786 787 787
794 792 789 791 800 803 806 802 800 800 801 802 799 794 791 790 791 790 792 793 790 787 786 786 783 783 781 779 778 778 778 777 779 780 783 783 783 785
792 788 789 794 801 801 805 802 799 798 798 798 796 792 790 788 787 788 788 789 788 787 785 786 786 783 782 781 779 776 775 775 775 777 778 779 779 780
794 794 795 798 802 804 803 801 798 795 795 794 793 792 790 788 786 786 785 785 783 781 780 781 782 781 781 779 778 777 775 773 771 771 772 772 774 775
793 795 798 800 801 802 801 798 797 793 794 793 792 792 790 788 784 783 781 780 778 776 775 775 775 776 776 777 777 774 772 771 770 768 768 769 768 768
795 796 796 796 796 796 796 796 795 793 792 791 791 789 788 785 782 780 779 776 774 772 771 770 769 769 771 771 771 769 768 766 765 765 764 763 766 764
795 794 793 793 793 792 792 792 792 791 791 791 790 790 787 786 781 778 776 773 770 769 769 768 767 766 764 766 765 763 761 761 760 759 759 758 759 760
794 793 793 793 792 792 793 792 791 791 791 790 790 788 786 783 781 778 776 774 771 768 767 766 765 764 765 762 759 758 757 756 753 751 752 751 752 753
794 794 794 794 793 793 793 792 791 790 790 789 787 786 784 782 780 779 777 774 773 772 768 766 765 764 766 764 760 754 756 755 751 747 746 746 746 746
792 791 792 791 790 790 789 790 789 788 787 787 784 782 781 780 777 775 773 773 773 771 770 767 764 762 761 760 757 752 749 749 752 754 749 745 744 743
795 794 794 794 793 793 792 790 788 786 785 783 781 781 779 777 775 773 772 769 767 765 763 762 761 759 757 755 753 750 748 746 745 745 748 746 746 745
796 795 795 793 792 790 789 787 786 784 782 780 778 777 775 774 772 771 768 766 763 761 758 756 753 752 752 751 748 746 745 741 739 739 742 742 740 741